Weather History for Newton, KS

Change the Weather History Date:

Saturday, January 5, 2013

  Actual Average Record
Temperature  
Mean Temperature 36 °F -  
Max Temperature 46 °F 39 °F 62 °F (2012)
Min Temperature 26 °F 21 °F 1 °F (2014)
Degree Days  
Heating Degree Days 29    
Moisture  
Dew Point 24 °F    
Average Humidity 63    
Maximum Humidity 75    
Minimum Humidity 46    
Precipitation  
Precipitation 0.00 in - - ()
Sea Level Pressure  
Sea Level Pressure 30.17 in    
Wind  
Wind Speed 15 mph (WSW)    
Max Wind Speed 22 mph    
Max Gust Speed 28 mph    
Visibility 10 miles    
Events      
Averages and records for this station are not official NWS values.
T = Trace of Precipitation, MM = Missing Value Source: NWS Daily Summary

Daily Weather History Graph

Daily Weather History Graph

Search for Another Location

Airport:

Trip Planner

Search our weather history database for the weather conditions in past years. The results will help you decide how hot, cold, wet, or windy it might be!

Date:

Astronomy

Jan. 05, 2013 Rise Set
Actual Time 7:45 AM CST 5:23 PM CST
Civil Twilight 7:16 AM CST 5:53 PM CST
Nautical Twilight 6:43 AM CST 6:26 PM CST
Astronomical Twilight 6:11 AM CST 6:57 PM CST
Moon 12:56 AM CST (1/5) 12:11 PM CST (1/5)
Length of Visible Light 10h 36m
Length of Day
9h 38m
Last Quarter, 44% of the Moon is Illuminated
Jan 5
Last Quarter
Jan 11
New
Jan 18
First Quarter
Jan 26
Full
Feb 3
Last Quarter

Hourly Weather History & Observations

Time (CST) Temp. Windchill Dew Point Humidity Pressure Visibility Wind Dir Wind Speed Gust Speed Precip Events Conditions
12:15 AM 33.8 °F 24.8 °F 24.8 °F 70% 30.22 in 10.0 mi SSW 12.7 mph - N/A   Overcast
12:35 AM 35.6 °F 27.1 °F 24.8 °F 65% 30.21 in 10.0 mi SSW 12.7 mph - N/A   Overcast
12:55 AM 35.6 °F 25.9 °F 24.8 °F 65% 30.21 in 10.0 mi SSW 16.1 mph - N/A   Overcast
1:15 AM 35.6 °F 25.9 °F 24.8 °F 65% 30.20 in 10.0 mi South 16.1 mph - N/A   Overcast
1:35 AM 35.6 °F 25.9 °F 24.8 °F 65% 30.20 in 10.0 mi South 16.1 mph 19.6 mph N/A   Overcast
1:55 AM 35.6 °F 25.5 °F 24.8 °F 65% 30.19 in 10.0 mi SSW 17.3 mph - N/A   Overcast
2:15 AM 35.6 °F 24.8 °F 26.6 °F 70% 30.19 in 10.0 mi SSW 19.6 mph - N/A   Overcast
2:35 AM 35.6 °F 25.5 °F 26.6 °F 70% 30.19 in 10.0 mi SSW 17.3 mph 25.3 mph N/A   Overcast
2:55 AM 35.6 °F 24.8 °F 26.6 °F 70% 30.19 in 10.0 mi SSW 19.6 mph - N/A   Overcast
3:15 AM 35.6 °F 24.8 °F 26.6 °F 70% 30.18 in 10.0 mi SSW 19.6 mph 23.0 mph N/A   Mostly Cloudy
3:35 AM 35.6 °F 25.9 °F 26.6 °F 70% 30.18 in 10.0 mi SSW 16.1 mph - N/A   Mostly Cloudy
3:55 AM 35.6 °F 26.2 °F 26.6 °F 70% 30.17 in 10.0 mi SSW 15.0 mph - N/A   Mostly Cloudy
4:15 AM 35.6 °F 25.2 °F 26.6 °F 70% 30.16 in 10.0 mi SSW 18.4 mph 25.3 mph N/A   Overcast
4:35 AM 35.6 °F 24.5 °F 26.6 °F 70% 30.15 in 10.0 mi SSW 20.7 mph - N/A   Overcast
4:55 AM 35.6 °F 25.5 °F 26.6 °F 70% 30.14 in 10.0 mi South 17.3 mph 21.9 mph N/A   Mostly Cloudy
5:15 AM 35.6 °F 24.8 °F 26.6 °F 70% 30.14 in 10.0 mi South 19.6 mph - N/A   Mostly Cloudy
5:35 AM 35.6 °F 25.2 °F 26.6 °F 70% 30.14 in 10.0 mi South 18.4 mph - N/A   Mostly Cloudy
5:55 AM 35.6 °F 25.9 °F 26.6 °F 70% 30.13 in 10.0 mi SSW 16.1 mph - N/A   Mostly Cloudy
6:15 AM 35.6 °F 24.8 °F 26.6 °F 70% 30.13 in 10.0 mi SSW 19.6 mph - N/A   Overcast
6:35 AM 33.8 °F 22.8 °F 26.6 °F 75% 30.14 in 10.0 mi SSW 18.4 mph 23.0 mph N/A   Overcast
6:55 AM 33.8 °F 23.5 °F 26.6 °F 75% 30.14 in 10.0 mi SSW 16.1 mph - N/A   Mostly Cloudy
7:15 AM 35.6 °F 25.9 °F 26.6 °F 70% 30.14 in 10.0 mi SSW 16.1 mph - N/A   Overcast
7:35 AM 35.6 °F 25.9 °F 26.6 °F 70% 30.14 in 10.0 mi SSW 16.1 mph 20.7 mph N/A   Overcast
7:55 AM 35.6 °F 27.1 °F 26.6 °F 70% 30.15 in 10.0 mi SSW 12.7 mph - N/A   Overcast
8:15 AM 33.8 °F 24.8 °F 26.6 °F 75% 30.16 in 10.0 mi SSW 12.7 mph - N/A   Overcast
8:35 AM 35.6 °F 27.1 °F 26.6 °F 70% 30.16 in 10.0 mi SSW 12.7 mph - N/A   Overcast
8:55 AM 35.6 °F 27.5 °F 26.6 °F 70% 30.17 in 10.0 mi SSW 11.5 mph - N/A   Overcast
9:15 AM 35.6 °F 25.9 °F 28.4 °F 75% 30.16 in 10.0 mi SSW 16.1 mph - N/A   Overcast
9:55 AM 37.4 °F 27.8 °F 26.6 °F 65% 30.16 in 10.0 mi SSW 17.3 mph 21.9 mph N/A   Overcast
10:15 AM 37.4 °F 27.8 °F 28.4 °F 70% 30.17 in 10.0 mi SSW 17.3 mph - N/A   Overcast
10:55 AM 39.2 °F 29.6 °F 28.4 °F 65% 30.16 in 10.0 mi SW 19.6 mph 25.3 mph N/A   Clear
11:15 AM 41.0 °F 31.9 °F 28.4 °F 61% 30.16 in 10.0 mi SW 19.6 mph 26.5 mph N/A   Clear
11:35 AM 41.0 °F 31.9 °F 28.4 °F 61% 30.14 in 10.0 mi SW 19.6 mph - N/A   Clear
11:55 AM 42.8 °F 34.0 °F 28.4 °F 57% 30.13 in 10.0 mi SW 20.7 mph 24.2 mph N/A   Partly Cloudy
12:15 PM 42.8 °F 34.5 °F 26.6 °F 53% 30.13 in 10.0 mi SW 18.4 mph 24.2 mph N/A   Partly Cloudy
12:35 PM 42.8 °F 35.1 °F 26.6 °F 53% 30.12 in 10.0 mi WSW 16.1 mph 24.2 mph N/A   Clear
12:55 PM 44.6 °F 36.1 °F 26.6 °F 49% 30.11 in 10.0 mi WSW 21.9 mph 25.3 mph N/A   Clear
1:15 PM 44.6 °F 36.4 °F 26.6 °F 49% 30.10 in 10.0 mi WSW 20.7 mph - N/A   Clear
1:35 PM 44.6 °F 36.9 °F 26.6 °F 49% 30.08 in 10.0 mi SW 18.4 mph 25.3 mph N/A   Clear
1:55 PM 44.6 °F 36.6 °F 26.6 °F 49% 30.09 in 10.0 mi WSW 19.6 mph 27.6 mph N/A   Clear
2:15 PM 46.4 °F 39.2 °F 26.6 °F 46% 30.09 in 10.0 mi West 18.4 mph 26.5 mph N/A   Clear
2:35 PM 46.4 °F 39.8 °F 26.6 °F 46% 30.09 in 10.0 mi WSW 16.1 mph 23.0 mph N/A   Clear
2:55 PM 46.4 °F 39.5 °F 26.6 °F 46% 30.10 in 10.0 mi West 17.3 mph - N/A   Clear
3:15 PM 46.4 °F 39.5 °F 26.6 °F 46% 30.12 in 10.0 mi West 17.3 mph 21.9 mph N/A   Clear
3:35 PM 46.4 °F 39.2 °F 26.6 °F 46% 30.13 in 10.0 mi West 18.4 mph 23.0 mph N/A   Clear
3:55 PM 44.6 °F 37.8 °F 26.6 °F 49% 30.14 in 10.0 mi West 15.0 mph - N/A   Clear
4:15 PM 44.6 °F 37.8 °F 24.8 °F 46% 30.15 in 10.0 mi WNW 15.0 mph - N/A   Clear
4:55 PM 39.2 °F 31.2 °F 21.2 °F 49% 30.17 in 10.0 mi WNW 13.8 mph - N/A   Clear
5:15 PM 35.6 °F 26.6 °F 19.4 °F 52% 30.18 in 10.0 mi WNW 13.8 mph - N/A   Clear
5:35 PM 33.8 °F 24.8 °F 19.4 °F 56% 30.19 in 10.0 mi WNW 12.7 mph - N/A   Clear
5:55 PM 33.8 °F 25.8 °F 17.6 °F 52% 30.20 in 10.0 mi WNW 10.4 mph - N/A   Clear
6:15 PM 30.2 °F 21.3 °F 17.6 °F 60% 30.20 in 10.0 mi WNW 10.4 mph - N/A   Clear
6:35 PM 30.2 °F 22.6 °F 17.6 °F 60% 30.21 in 10.0 mi WNW 8.1 mph - N/A   Clear
6:55 PM 28.4 °F 21.2 °F 17.6 °F 64% 30.22 in 10.0 mi WNW 6.9 mph - N/A   Clear
7:15 PM 28.4 °F 21.2 °F 17.6 °F 64% 30.22 in 10.0 mi WNW 6.9 mph - N/A   Clear
7:55 PM 28.4 °F 20.4 °F 17.6 °F 64% 30.23 in 10.0 mi West 8.1 mph - N/A   Clear
8:15 PM 26.6 °F 19.1 °F 17.6 °F 69% 30.23 in 10.0 mi West 6.9 mph - N/A   Clear
8:35 PM 26.6 °F 18.2 °F 17.6 °F 69% 30.23 in 10.0 mi West 8.1 mph - N/A   Clear
8:55 PM 28.4 °F 21.2 °F 17.6 °F 64% 30.23 in 10.0 mi West 6.9 mph - N/A   Clear
9:15 PM 28.4 °F 20.4 °F 17.6 °F 64% 30.23 in 10.0 mi West 8.1 mph - N/A   Clear
9:35 PM 28.4 °F 19.7 °F 19.4 °F 69% 30.24 in 10.0 mi WNW 9.2 mph - N/A   Clear
9:55 PM 28.4 °F 18.5 °F 19.4 °F 69% 30.24 in 10.0 mi WNW 11.5 mph - N/A   Clear
10:15 PM 28.4 °F 19.1 °F 19.4 °F 69% 30.25 in 10.0 mi NW 10.4 mph - N/A   Clear
10:35 PM 28.4 °F 19.1 °F 19.4 °F 69% 30.26 in 10.0 mi WNW 10.4 mph - N/A   Clear
10:55 PM 28.4 °F 20.4 °F 19.4 °F 69% 30.26 in 10.0 mi NW 8.1 mph - N/A   Clear
11:15 PM 28.4 °F 20.4 °F 21.2 °F 74% 30.26 in 10.0 mi NW 8.1 mph - N/A   Clear
11:35 PM 28.4 °F 19.7 °F 21.2 °F 74% 30.26 in 10.0 mi WNW 9.2 mph - N/A   Clear
11:55 PM 28.4 °F 19.1 °F 19.4 °F 69% 30.27 in 10.0 mi NW 10.4 mph - N/A   Clear